Simultaneous Nadir Overpasses (SNOs) Predictions

Prediction of SNOs between AQUA and NOAA-19 Satellite Orbit:

Table of predicted SNOs for the next 14.0 days since TLE Epoch: 2/16/2013
Index Date (AQUA) Time (AQUA) Lat,Lon (AQUA) SZA (AQUA ) Date (NOAA-19) Time (NOAA-19) Lat,Lon (NOAA-19) SZA (NOAA-19 ) Distance(km) Time Diff (sec)
1 02/16/2013 00:26:59 47.07,-171.73 60.13 02/16/2013 00:26:42 46.96,-172.33 59.93 46.54 17
2 02/18/2013 04:45:41 -46.01, 141.05 42.19 02/18/2013 04:44:33 -45.86, 142.04 42.44 78.80 68
3 02/18/2013 05:11:34 47.31, 117.05 59.60 02/18/2013 05:11:12 47.18, 116.49 59.38 44.94 22
4 02/18/2013 06:00:37 -46.06, -74.83 121.57 02/18/2013 06:01:49 -45.88, -75.73 121.84 73.01 72
5 02/20/2013 09:56:44 48.60, 45.34 60.03 02/20/2013 09:56:01 48.49, 44.83 59.83 39.38 43
6 02/20/2013 10:45:26 -46.09,-146.04 122.31 02/20/2013 10:46:17 -45.95,-146.86 122.54 65.68 51
7 02/22/2013 14:46:45 65.83, -36.46 75.71 02/22/2013 14:45:32 65.66, -37.53 75.52 52.52 73
8 02/22/2013 15:53:30 -49.47, -24.79 46.67 02/22/2013 15:54:28 -49.38, -24.19 46.98 44.37 58
9 02/24/2013 20:16:35 -48.51, 70.41 121.63 02/24/2013 20:15:53 -48.44, 69.90 121.80 38.18 42
10 02/24/2013 21:05:24 46.06,-121.02 56.10 02/24/2013 21:06:12 45.91,-121.81 55.86 63.43 48
11 02/27/2013 01:25:32 -46.02,-168.91 45.16 02/27/2013 01:24:22 -45.85,-167.87 45.40 82.11 70
12 02/27/2013 01:51:29 47.52, 167.01 56.64 02/27/2013 01:51:04 47.42, 166.48 56.45 41.44 25
13 02/27/2013 02:40:30 -46.07, -24.80 124.70 02/27/2013 02:41:40 -45.92, -25.67 124.94 69.60 70
14 03/01/2013 07:00:54 46.06, -72.74 134.02 03/01/2013 06:59:42 45.87, -71.69 133.79 83.55 72
15 03/01/2013 07:26:47 -47.20, -96.71 124.47 03/01/2013 07:26:27 -47.10, -97.25 124.66 41.87 20




NCC Satellite Simultaneous Nadir Overpasses (SNOs) Prediction Service
